This is the latest recevied weather packets stored in our database for station/object KN4CI-1. If no packets are shown the sender has not sent any weather packets the latest 10 day(s).
| Time | Temp. | Humidity | Pressure | Rain* | Wind** | Luminosity | Snow |
|---|---|---|---|---|---|---|---|
| 1777660635 | 18.89° C | 17% | 1015.6 hPa | 0 mm | 1.79 m/s, 323° | - | - |
| 1777660330 | 18.89° C | 17% | 1015.6 hPa | 0 mm | 1.79 m/s, 305° | - | - |
| 1777660030 | 18.89° C | 17% | 1015.6 hPa | 0 mm | 1.79 m/s, 330° | - | - |
| 1777659726 | 18.89° C | 17% | 1015.6 hPa | 0 mm | 2.24 m/s, 336° | - | - |
| 1777659426 | 18.89° C | 17% | 1015.6 hPa | 0 mm | 1.34 m/s, 351° | - | - |
| 1777659127 | 18.33° C | 17% | 1015.6 hPa | 0 mm | 1.79 m/s, 351° | - | - |
| 1777658822 | 18.33° C | 18% | 1015.6 hPa | 0 mm | 2.68 m/s, 333° | - | - |
| 1777658523 | 18.33° C | 18% | 1015.6 hPa | 0 mm | 1.79 m/s, 351° | - | - |
| 1777658223 | 18.33° C | 18% | 1015.6 hPa | 0 mm | 1.79 m/s, 337° | - | - |
| 1777657914 | 18.33° C | 18% | 1015.6 hPa | 0 mm | 2.24 m/s, 343° | - | - |
| 1777657310 | 18.33° C | 18% | 1015.6 hPa | 0 mm | 1.79 m/s, 3° | - | - |
| 1777657005 | 18.33° C | 18% | 1016.6 hPa | 0 mm | 1.79 m/s, 356° | - | - |
| 1777656705 | 18.33° C | 17% | 1016.6 hPa | 0 mm | 2.24 m/s, 351° | - | - |
| 1777656101 | 18.89° C | 17% | 1016.6 hPa | 0 mm | 1.79 m/s, 50° | - | - |
| 1777655197 | 18.89° C | 17% | 1016.6 hPa | 0 mm | 2.24 m/s, 351° | - | - |
| 1777654898 | 18.89° C | 17% | 1016.6 hPa | 0 mm | 1.79 m/s, 68° | - | - |
| 1777653985 | 18.33° C | 17% | 1016.6 hPa | 0 mm | 2.24 m/s, 16° | - | - |
| 1777653074 | 18.33° C | 17% | 1016.6 hPa | 0 mm | 1.79 m/s, 356° | - | - |
| 1777652171 | 18.33° C | 18% | 1016.6 hPa | 0 mm | 1.34 m/s, 24° | - | - |
| 1777651872 | 17.78° C | 18% | 1016.6 hPa | 0 mm | 1.79 m/s, 327° | - | - |
| 1777651569 | 17.78° C | 18% | 1016.6 hPa | 0 mm | 1.34 m/s, 328° | - | - |
| 1777650970 | 17.78° C | 18% | 1016.6 hPa | 0 mm | 1.34 m/s, 41° | - | - |
| 1777650368 | 17.22° C | 18% | 1016.6 hPa | 0 mm | 1.79 m/s, 324° | - | - |
| 1777650068 | 17.22° C | 18% | 1016.6 hPa | 0 mm | 0 m/s | - | - |
| 1777649461 | 16.67° C | 18% | 1016.6 hPa | 0 mm | 1.34 m/s, 32° | - | - |
* Rain latest hour (hover to see other rain measurements)
** Current wind speed in m/s (hover to see current wind gust speed)